When you browse on this site, cookies collect data to enhance your experience and personalize the content and advertising you see.
Visit our Privacy Policy to learn more. By continuing to use the site, you agree to this use of cookies and data.
  • In Sweden
  • List of Countries
  • For 7 days
  • Water Temperature
  • Weather Map
  • Weather Widgets
  • user-avatar
    Login

    Hourly Weather Aglasterhausen

    Today, 19 February, Wednesday

    Time Temperature Precipitation Wind Pressure Humidity
    00:00 +3°C° 0 mm 4 mps 741 mmHg 79%
    01:00 +2°C° 0 mm 5 mps 740 mmHg 79%
    02:00 +2°C° 0.1 mm 5 mps 739 mmHg 82%
    03:00 +2°C° 0.1 mm 6 mps 738 mmHg 84%
    04:00 +2°C° 0.1 mm 6 mps 737 mmHg 86%
    05:00 +2°C° 0.6 mm 7 mps 737 mmHg 87%
    06:00 +2°C° 0.6 mm 7 mps 737 mmHg 88%
    07:00 +1°C° 0.6 mm 8 mps 737 mmHg 89%
    08:00 +2°C° 0.4 mm 7 mps 737 mmHg 84%
    09:00 +3°C° 0.4 mm 7 mps 738 mmHg 79%
    10:00 +3°C° 0.4 mm 7 mps 738 mmHg 74%
    11:00 +4°C° 0.3 mm 7 mps 739 mmHg 69%
    12:00 +4°C° 0.3 mm 6 mps 739 mmHg 65%
    13:00 +4°C° 0.3 mm 6 mps 740 mmHg 61%
    14:00 +4°C° 0.1 mm 6 mps 740 mmHg 61%
    15:00 +4°C° 0.1 mm 6 mps 740 mmHg 61%
    16:00 +4°C° 0.1 mm 6 mps 741 mmHg 61%
    17:00 +3°C° 0 mm 5 mps 741 mmHg 66%
    18:00 +3°C° 0 mm 4 mps 741 mmHg 70%
    19:00 +2°C° 0 mm 3 mps 741 mmHg 75%
    20:00 +2°C° 0 mm 3 mps 742 mmHg 77%
    21:00 +1°C° 0 mm 3 mps 742 mmHg 79%
    22:00 +1°C° 0 mm 3 mps 742 mmHg 82%
    23:00 +1°C° 0 mm 3 mps 742 mmHg 82%

    Tomorrow, 20 February, Thursday

    Time Temperature Precipitation Wind Pressure Humidity
    00:00 +1°C° 0 mm 3 mps 741 mmHg 83%
    01:00 +1°C° 0 mm 3 mps 741 mmHg 83%
    02:00 +1°C° 0 mm 3 mps 741 mmHg 85%
    03:00 +2°C° 0 mm 3 mps 740 mmHg 87%
    04:00 +2°C° 0 mm 3 mps 740 mmHg 88%
    05:00 +2°C° 0.1 mm 3 mps 740 mmHg 89%
    06:00 +2°C° 0.1 mm 3 mps 739 mmHg 89%
    07:00 +3°C° 0.1 mm 3 mps 739 mmHg 89%
    08:00 +3°C° 0 mm 3 mps 739 mmHg 88%
    09:00 +4°C° 0 mm 3 mps 739 mmHg 87%
    10:00 +4°C° 0 mm 3 mps 739 mmHg 85%
    11:00 +5°C° 0 mm 3 mps 739 mmHg 83%
    12:00 +5°C° 0 mm 3 mps 739 mmHg 81%
    13:00 +6°C° 0 mm 4 mps 738 mmHg 79%
    14:00 +6°C° 0 mm 4 mps 738 mmHg 78%
    15:00 +7°C° 0 mm 3 mps 737 mmHg 77%
    16:00 +7°C° 0 mm 3 mps 737 mmHg 76%
    17:00 +7°C° 0 mm 3 mps 737 mmHg 77%
    18:00 +7°C° 0 mm 3 mps 737 mmHg 77%
    19:00 +7°C° 0 mm 3 mps 737 mmHg 77%
    20:00 +6°C° 0 mm 4 mps 737 mmHg 77%
    21:00 +6°C° 0 mm 5 mps 736 mmHg 77%
    22:00 +6°C° 0 mm 5 mps 736 mmHg 77%
    23:00 +4°C° 0.3 mm 6 mps 737 mmHg 78%

    Day after tomorrow, 21 February, Friday

    Time Temperature Precipitation Wind Pressure Humidity
    00:00 +4°C° 0.3 mm 7 mps 737 mmHg 79%
    01:00 +4°C° 0.3 mm 8 mps 738 mmHg 80%
    02:00 +3°C° 0.1 mm 7 mps 739 mmHg 78%
    03:00 +2°C° 0.1 mm 6 mps 740 mmHg 76%
    04:00 +1°C° 0.1 mm 5 mps 741 mmHg 74%
    05:00 0°C° 0 mm 5 mps 742 mmHg 76%
    06:00 0°C° 0 mm 4 mps 743 mmHg 78%
    07:00 -1°C° 0 mm 4 mps 744 mmHg 79%
    14:00 +3°C° 0 mm 5 mps 747 mmHg 61%
    15:00 +5°C° 0 mm 5 mps 746 mmHg 61%
    16:00 +5°C° 0 mm 5 mps 746 mmHg 61%
    17:00 +4°C° 0 mm 4 mps 746 mmHg 66%
    18:00 +3°C° 0 mm 3 mps 746 mmHg 70%
    19:00 +3°C° 0 mm 2 mps 747 mmHg 74%
    20:00 +3°C° 0 mm 2 mps 747 mmHg 76%
    21:00 +3°C° 0 mm 2 mps 746 mmHg 77%
    22:00 +3°C° 0 mm 2 mps 746 mmHg 79%
    23:00 +1°C° 0 mm 3 mps 746 mmHg 80%

    22 February, Saturday

    Time Temperature Precipitation Wind Pressure Humidity
    00:00 +1°C° 0 mm 3 mps 746 mmHg 81%
    01:00 +1°C° 0 mm 3 mps 746 mmHg 81%
    02:00 +1°C° 0 mm 3 mps 746 mmHg 81%
    03:00 +1°C° 0 mm 3 mps 746 mmHg 81%
    04:00 0°C° 0 mm 3 mps 745 mmHg 82%
    05:00 0°C° 0 mm 3 mps 745 mmHg 81%
    06:00 0°C° 0 mm 3 mps 745 mmHg 80%
    07:00 0°C° 0 mm 3 mps 745 mmHg 80%
    08:00 0°C° 0 mm 4 mps 745 mmHg 76%
    09:00 +1°C° 0 mm 5 mps 745 mmHg 72%
    10:00 +2°C° 0 mm 5 mps 745 mmHg 69%
    11:00 +3°C° 0 mm 6 mps 745 mmHg 65%
    12:00 +5°C° 0 mm 6 mps 744 mmHg 61%
    13:00 +7°C° 0 mm 6 mps 744 mmHg 57%
    14:00 +7°C° 0 mm 6 mps 744 mmHg 57%
    15:00 +7°C° 0 mm 6 mps 743 mmHg 56%
    16:00 +8°C° 0 mm 6 mps 743 mmHg 56%
    17:00 +7°C° 0 mm 6 mps 743 mmHg 59%
    18:00 +6°C° 0 mm 5 mps 743 mmHg 62%
    19:00 +6°C° 0 mm 5 mps 743 mmHg 64%
    20:00 +6°C° 0 mm 5 mps 743 mmHg 65%
    21:00 +5°C° 0 mm 6 mps 743 mmHg 65%
    22:00 +5°C° 0 mm 6 mps 743 mmHg 65%
    23:00 +5°C° 0 mm 6 mps 743 mmHg 68%

    23 February, Sunday

    Time Temperature Precipitation Wind Pressure Humidity
    00:00 +5°C° 0 mm 6 mps 743 mmHg 70%
    01:00 +5°C° 0 mm 6 mps 743 mmHg 72%
    02:00 +5°C° 0 mm 6 mps 743 mmHg 74%
    03:00 +5°C° 0 mm 6 mps 743 mmHg 75%
    04:00 +5°C° 0 mm 6 mps 743 mmHg 77%
    05:00 +5°C° 0.1 mm 6 mps 743 mmHg 78%
    06:00 +5°C° 0.1 mm 6 mps 743 mmHg 80%
    07:00 +5°C° 0.1 mm 6 mps 743 mmHg 81%
    08:00 +5°C° 0.1 mm 6 mps 743 mmHg 81%
    09:00 +5°C° 0.1 mm 6 mps 743 mmHg 80%
    10:00 +5°C° 0.1 mm 6 mps 743 mmHg 80%
    11:00 +7°C° 0 mm 6 mps 742 mmHg 80%
    12:00 +7°C° 0 mm 6 mps 742 mmHg 79%
    13:00 +7°C° 0 mm 6 mps 741 mmHg 79%
    14:00 +8°C° 0 mm 7 mps 740 mmHg 79%
    15:00 +7°C° 0 mm 8 mps 739 mmHg 78%
    16:00 +8°C° 0 mm 9 mps 738 mmHg 78%
    17:00 +8°C° 0 mm 9 mps 738 mmHg 76%
    18:00 +10°C° 0 mm 9 mps 738 mmHg 74%
    19:00 +10°C° 0 mm 9 mps 738 mmHg 72%
    20:00 +9°C° 0 mm 10 mps 738 mmHg 72%
    21:00 +9°C° 0 mm 10 mps 738 mmHg 71%
    22:00 +8°C° 0 mm 10 mps 738 mmHg 70%
    23:00 +8°C° 0.6 mm 10 mps 738 mmHg 75%

    24 February, Monday

    Time Temperature Precipitation Wind Pressure Humidity
    00:00 +8°C° 0.6 mm 10 mps 739 mmHg 80%
    01:00 +8°C° 0.6 mm 9 mps 739 mmHg 85%
    02:00 +7°C° 1.1 mm 8 mps 740 mmHg 82%
    03:00 +6°C° 1.1 mm 7 mps 741 mmHg 78%
    04:00 +5°C° 1.1 mm 6 mps 742 mmHg 74%
    05:00 +5°C° 0 mm 5 mps 743 mmHg 74%
    06:00 +4°C° 0 mm 4 mps 744 mmHg 75%
    07:00 +4°C° 0 mm 2 mps 745 mmHg 75%
    08:00 +4°C° 0 mm 2 mps 746 mmHg 72%
    09:00 +5°C° 0 mm 2 mps 747 mmHg 69%
    10:00 +6°C° 0 mm 1 mps 747 mmHg 65%
    11:00 +7°C° 0 mm 1 mps 747 mmHg 61%
    12:00 +8°C° 0 mm 1 mps 747 mmHg 56%
    13:00 +8°C° 0 mm 0 mps 747 mmHg 51%
    14:00 +8°C° 0 mm 0 mps 746 mmHg 50%
    15:00 +9°C° 0 mm 1 mps 745 mmHg 49%
    16:00 +9°C° 0 mm 1 mps 745 mmHg 49%
    17:00 +8°C° 0 mm 1 mps 744 mmHg 53%
    18:00 +7°C° 0 mm 1 mps 744 mmHg 58%
    19:00 +6°C° 0 mm 1 mps 744 mmHg 62%
    20:00 +6°C° 0 mm 1 mps 743 mmHg 64%
    21:00 +5°C° 0 mm 1 mps 743 mmHg 66%
    22:00 +5°C° 0 mm 1 mps 743 mmHg 68%
    23:00 +5°C° 0 mm 1 mps 742 mmHg 71%
    Show more